Temperature
20 21 20 20 20 20 20 20 20 20 20 20 20 20 19 19 19 19 19 19 19 18 18 18 18 18 18 18 18 18 18 18 18 17 17 17 17 17 17 17 17 17 17
21 21 20 20 20 20 20 20 20 20 19 19 19 19 19 19 19 19 19 19 19 18 18 18 18 18 18 18 18 18 18 18 17 17 17 17 17 17 17 17 17 17 17
21 21 21 21 20 20 20 20 20 19 19 19 19 19 19 19 19 19 19 19 19 18 18 18 18 18 18 18 18 18 18 18 18 18 18 17 17 17 17 17 17 17 17
21 21 21 21 20 20 20 20 19 19 19 19 19 19 19 19 19 19 19 19 19 18 18 18 18 18 18 18 18 18 18 18 18 18 18 18 17 17 17 17 17 17 17
21 21 21 21 20 20 20 20 19 19 19 19 19 19 19 19 19 19 19 19 19 19 18 18 18 18 18 18 18 18 18 18 18 18 18 18 18 18 17 17 17 17 17
21 21 21 21 20 20 20 20 19 19 19 19 19 19 19 19 19 19 19 19 19 19 19 18 18 18 18 18 18 17 18 18 18 18 18 18 18 18 17 17 17 17 17
21 21 21 20 20 20 20 20 19 19 19 19 19 19 19 19 19 19 19 19 19 19 19 19 18 18 18 18 17 17 17 18 18 18 18 18 18 18 17 17 17 17 17
21 21 20 20 20 20 20 20 19 19 19 19 19 19 19 19 19 19 19 19 19 19 19 19 19 18 18 18 17 17 17 18 18 18 18 18 18 18 17 17 17 17 17
21 20 20 20 20 20 20 19 19 19 19 19 19 19 19 18 18 18 18 18 18 18 19 19 19 18 18 18 17 17 17 18 18 18 18 18 18 18 17 17 17 17 17
21 20 20 20 20 20 19 19 19 19 19 19 19 18 18 18 18 18 18 18 18 18 18 18 18 18 18 18 18 17 18 18 18 18 18 18 18 18 18 17 17 17 17
20 20 20 20 20 20 19 19 19 19 19 18 18 18 18 18 18 18 18 18 18 18 18 18 18 18 18 18 18 17 18 18 18 18 18 18 18 18 18 18 17 17 17
20 20 20 20 20 19 19 19 19 19 18 18 18 18 18 18 18 18 18 18 18 18 18 18 18 18 18 18 18 17 18 18 18 18 18 18 18 18 18 18 18 17 17
20 20 20 20 19 19 19 19 19 18 18 18 18 18 18 18 18 18 18 18 18 18 17 17 17 18 18 18 18 18 18 18 18 18 18 18 17 18 18 18 18 17 17
19 19 19 19 19 19 19 19 18 18 18 18 18 18 18 18 18 18 17 17 17 17 17 17 17 17 17 18 17 18 18 18 18 18 18 18 17 17 17 18 18 17 17
19 19 19 19 19 19 19 19 18 18 18 18 18 18 18 18 18 18 17 17 17 17 17 17 17 17 17 17 17 17 17 17 18 18 18 17 17 17 17 17 17 17 17
19 19 19 19 19 19 18 18 18 18 18 18 18 18 18 18 18 17 17 17 17 17 17 17 17 17 17 17 17 17 17 17 17 17 17 17 17 17 17 17 17 17 17
19 19 19 19 19 18 18 18 18 18 18 18 18 18 18 18 17 17 17 17 17 17 17 17 17 17 17 17 17 17 17 17 17 17 17 17 17 17 17 17 17 17 17
19 19 19 19 18 18 18 18 18 18 18 18 18 18 18 17 17 17 17 17 17 17 17 17 17 17 17 17 17 17 17 17 17 17 17 17 17 17 17 16 17 17 17
18 18 18 19 18 18 18 18 18 18 18 18 18 18 17 17 17 17 17 16 16 16 16 16 16 17 17 17 17 17 17 17 17 17 17 17 17 17 17 16 16 16 16
18 18 18 18 18 18 18 18 18 17 18 17 17 17 17 17 17 16 16 16 16 16 16 16 16 16 17 17 17 17 17 17 17 17 17 17 17 17 17 16 16 16 16
18 18 18 18 18 18 18 18 18 18 18 17 17 17 17 17 16 16 16 16 16 16 16 16 16 16 16 17 17 17 17 17 17 17 17 17 17 17 17 16 16 16 16
18 18 18 18 18 18 18 18 18 18 17 17 17 17 17 16 16 16 16 16 16 16 16 16 16 16 16 16 17 17 17 17 17 17 17 17 16 16 16 16 16 16 16
18 18 18 18 18 18 18 18 17 17 17 17 17 17 17 16 16 16 16 16 16 16 15 15 16 16 16 16 16 17 17 17 17 17 17 16 16 16 16 16 16 16 16
18 18 18 18 17 18 18 18 18 17 17 17 17 17 17 16 16 16 16 16 15 15 15 15 15 16 16 16 16 16 16 17 17 16 16 16 16 16 16 16 16 16 16
18 18 18 17 17 17 18 18 18 18 17 17 17 17 17 16 16 16 16 16 16 15 15 15 15 16 16 16 16 16 16 16 16 16 16 16 16 16 16 16 16 16 16
18 18 17 17 17 17 17 17 17 17 17 17 17 17 17 16 16 16 16 16 16 16 16 15 15 15 16 15 16 16 16 16 16 16 16 16 16 16 16 16 16 16 16
Wind_Speed
10 15 22 22 21 21 20 20 19 19 19 19 19 19 19 18 18 17 16 15 14 13 12 12 11 10 10 10 10 10 11 12 14 16 17 17 18 18 19 19 18 18 20
14 19 23 23 22 21 21 20 19 19 18 18 18 18 18 17 17 16 15 14 13 13 12 11 11 10 10 10 10 10 11 11 13 15 16 16 17 17 18 17 17 16 19
18 20 23 23 23 22 21 20 20 19 18 18 17 17 17 16 16 15 14 14 13 12 12 11 10 10 9 9 9 9 10 11 13 15 15 13 14 16 17 17 17 17 17
19 20 22 24 23 22 21 20 20 19 18 17 17 16 16 15 15 14 13 13 12 12 11 10 10 9 9 9 8 9 10 10 12 13 11 11 13 16 17 17 17 17 17
16 19 23 25 23 22 21 20 20 19 18 17 17 16 15 15 14 13 13 12 12 11 10 10 9 9 9 9 9 8 8 9 10 11 10 11 13 15 16 16 16 16 16
14 18 23 24 23 23 21 20 20 19 18 17 16 15 15 14 13 13 12 12 11 10 10 9 8 8 8 8 9 9 7 7 9 11 11 12 13 15 15 15 15 15 15
13 15 21 24 23 23 21 20 19 19 18 17 16 15 14 13 13 12 12 11 10 10 9 8 7 6 6 7 8 9 9 7 9 11 11 11 12 14 15 15 15 15 15
16 13 19 23 23 22 21 20 19 18 18 16 15 15 14 13 12 11 11 11 10 9 8 7 5 4 5 6 7 10 10 8 10 11 10 11 13 14 15 15 14 15 15
15 13 14 19 20 21 21 20 19 18 17 16 15 14 13 12 11 11 10 10 10 9 8 7 6 4 3 4 6 9 11 11 12 10 10 10 14 15 15 15 15 14 14
13 12 11 14 16 17 17 19 18 17 16 15 14 13 12 11 11 11 10 10 9 9 8 7 6 4 2 2 4 9 11 12 11 10 8 10 15 15 15 15 15 14 14
13 11 10 11 13 14 15 16 17 16 15 13 12 11 11 9 9 10 10 10 9 9 8 7 6 4 2 0 3 7 10 9 10 9 8 10 14 15 15 15 15 15 14
15 12 11 11 11 13 13 13 12 12 12 10 9 8 8 7 8 9 10 10 9 9 8 7 6 5 3 1 2 5 8 8 8 7 8 12 14 15 16 15 15 14 14
15 13 11 11 11 10 8 10 9 8 9 8 7 7 6 5 5 6 5 6 6 7 5 5 5 4 3 2 2 5 8 7 7 7 8 12 14 15 16 15 15 15 14
14 13 11 10 8 8 10 8 8 7 6 6 6 7 7 4 3 4 3 3 3 4 4 4 4 4 4 4 5 6 7 7 7 6 9 13 14 16 16 16 15 15 15
13 13 12 11 10 7 7 7 7 6 7 7 7 8 9 5 3 3 2 3 3 3 4 4 3 3 3 4 5 6 7 8 10 9 10 13 15 16 16 16 16 15 15
12 12 10 10 10 8 7 6 6 8 9 8 8 9 9 7 4 3 2 2 2 2 4 4 3 3 2 2 3 5 8 10 11 11 11 12 15 17 17 17 17 16 16
11 10 10 11 10 9 8 7 8 9 10 7 8 9 9 8 6 4 3 2 2 2 3 3 2 2 2 1 1 3 6 8 9 11 12 12 13 16 18 18 17 17 16
12 11 11 13 11 9 8 7 8 9 9 8 9 8 8 8 8 6 3 2 3 5 4 3 2 2 2 2 1 2 3 5 8 10 11 12 12 13 16 18 17 17 16
13 12 10 11 11 10 9 6 7 8 8 8 8 7 8 8 8 6 3 3 5 5 3 3 3 2 2 1 2 2 2 3 4 7 8 10 12 12 13 15 16 16 16
10 11 11 10 10 9 8 7 6 6 5 7 7 7 8 7 7 6 4 4 6 4 4 3 3 2 1 1 1 2 1 1 2 3 4 7 9 11 12 12 13 14 16
10 11 11 11 10 9 7 7 7 6 5 4 4 7 8 7 7 6 4 4 4 4 3 3 3 4 3 2 3 3 4 2 0 1 2 3 4 6 9 11 11 11 12
10 10 10 11 11 9 7 6 5 6 4 4 3 5 7 7 6 6 5 3 3 4 4 4 3 2 3 2 3 3 3 4 3 1 1 3 3 3 5 8 10 10 10
12 12 12 10 10 9 8 6 6 5 4 3 2 2 4 7 7 7 6 4 3 3 3 3 3 4 3 3 2 4 4 3 2 3 1 1 3 2 2 4 7 9 10
12 11 11 10 9 8 8 8 9 7 5 5 4 4 3 6 6 7 6 6 4 3 3 2 3 3 4 3 2 2 2 4 3 0 3 2 1 2 3 2 4 7 9
11 11 11 10 9 8 8 9 9 6 5 4 4 5 4 3 5 6 6 5 4 3 3 3 4 4 3 3 2 1 3 3 3 3 1 3 3 2 2 3 3 6 9
9 10 10 11 9 8 8 7 8 8 7 6 6 6 4 3 2 4 5 5 5 4 4 4 4 4 3 3 2 2 2 2 1 3 2 1 2 3 2 2 3 4 8
Wind_Direction
150 153 146 140 135 131 127 123 119 116 114 112 109 108 107 106 105 105 106 106 107 106 105 103 100 96 93 94 98 104 112 119 125 126 126 123 119 117 115 113 112 112 113
149 152 146 142 138 135 132 129 125 123 120 118 115 114 112 111 110 110 109 108 108 108 106 104 100 96 93 93 97 103 110 117 124 126 124 121 119 118 116 115 115 116 115
144 148 145 142 140 138 136 133 130 128 126 124 121 119 118 117 116 115 113 112 110 110 109 107 102 96 92 90 93 100 110 118 123 121 117 112 117 119 120 119 118 117 117
142 145 145 143 141 140 138 137 135 132 131 129 127 126 124 123 122 120 118 116 114 114 112 108 103 95 90 85 85 93 107 115 120 119 116 114 118 122 123 122 121 120 118
140 143 144 143 142 140 140 139 137 136 135 135 133 132 130 129 128 126 124 122 119 118 116 110 104 95 87 81 78 85 99 113 124 124 121 116 121 127 126 126 125 123 122
138 142 144 143 143 142 141 140 140 139 139 138 137 137 135 134 134 132 130 128 126 124 121 116 109 97 85 76 72 71 84 114 123 124 124 124 129 132 131 131 129 127 125
138 142 144 144 143 143 144 143 143 143 143 143 142 142 142 141 141 140 138 136 133 131 126 121 114 100 85 72 65 63 68 112 126 128 132 133 137 137 136 136 135 132 129
141 142 145 145 145 145 146 146 147 147 148 149 148 149 149 148 147 147 147 147 145 141 138 134 127 109 87 71 60 62 74 114 136 142 141 144 146 143 140 139 138 136 135
141 144 145 147 148 149 149 150 151 151 152 153 155 155 155 157 159 159 159 160 157 154 153 151 147 136 97 69 60 65 82 113 135 134 147 153 153 149 146 144 143 142 141
144 148 147 147 147 150 153 154 154 155 157 159 161 163 165 169 172 174 174 175 172 168 167 166 165 163 144 73 62 76 95 112 131 137 145 161 160 154 152 150 150 149 148
151 152 151 149 149 150 154 159 158 159 162 164 167 172 175 179 184 187 189 191 187 184 181 180 180 182 191 106 57 88 105 118 135 140 156 169 167 161 159 158 157 156 154
161 162 160 158 156 157 160 156 159 160 164 166 170 173 174 180 190 195 202 202 198 196 192 192 193 194 197 187 59 100 118 129 139 155 176 179 177 170 166 164 163 162 161
163 162 165 164 164 164 153 156 160 157 160 165 170 169 161 163 174 179 188 200 202 198 192 198 201 192 182 175 130 118 131 139 155 175 186 187 186 178 172 170 169 168 167
157 162 164 164 165 164 155 160 159 153 156 157 155 145 134 127 126 139 150 171 173 178 177 183 194 193 179 169 152 138 145 152 170 184 195 196 194 185 179 176 174 174 174
159 162 164 164 164 160 153 159 156 153 153 145 129 123 127 121 121 126 131 140 154 160 164 172 178 177 175 167 161 150 154 168 177 184 201 204 200 193 185 183 181 181 180
166 160 160 162 162 156 154 147 144 145 141 129 119 120 120 118 115 113 102 100 108 141 159 164 165 163 175 172 168 150 160 165 177 187 203 208 206 199 194 190 189 187 186
164 155 161 155 151 151 146 143 139 139 134 125 122 120 113 110 107 109 101 87 68 95 122 119 116 114 128 146 180 154 161 172 178 188 195 202 205 205 202 197 196 195 193
160 159 164 154 148 145 137 132 134 136 131 129 128 119 107 105 107 98 94 75 66 80 98 104 92 95 88 102 133 158 161 172 184 189 194 199 203 206 208 205 202 201 200
168 160 153 147 148 144 135 129 130 133 132 135 129 119 109 104 106 98 88 71 83 80 78 99 81 99 103 109 143 151 164 173 179 186 191 198 202 205 208 212 210 207 207
160 153 150 151 144 135 127 121 119 121 129 135 133 133 121 113 107 103 93 75 84 81 69 72 74 65 100 125 90 89 106 171 164 170 183 189 200 206 208 211 212 214 215
155 153 154 152 148 142 141 142 142 143 147 143 150 147 133 124 112 102 96 81 83 87 83 78 75 60 39 47 67 35 10 10 79 188 175 169 187 200 203 207 208 211 218
167 162 160 159 154 155 153 151 149 145 152 155 153 150 144 135 127 117 113 105 98 91 70 59 68 77 31 46 106 89 38 1 356 356 170 166 173 174 183 197 201 207 213
175 170 169 166 159 158 150 133 123 105 98 106 143 160 161 147 137 129 123 116 109 110 101 82 78 92 67 19 74 133 136 193 299 337 344 159 168 167 182 186 194 204 208
179 173 166 168 163 159 150 148 149 149 160 182 180 178 173 160 152 145 134 123 116 117 114 107 93 96 104 55 13 38 134 152 142 48 334 331 258 188 195 194 182 191 197
178 173 169 168 165 162 157 158 155 155 168 166 162 165 174 175 173 166 152 134 128 130 129 112 102 95 102 107 79 55 57 59 86 132 203 313 332 299 236 209 186 183 191
176 173 171 168 171 171 165 165 166 166 164 159 166 173 184 191 197 188 171 155 150 150 148 142 128 119 113 109 100 97 113 110 117 128 156 244 282 294 287 248 209 192 193
Height
1532 1534 1536 1537 1539 1540 1541 1542 1543 1544 1545 1546 1547 1549 1550 1551 1552 1552 1553 1554 1555 1555 1556 1556 1556 1557 1557 1557 1557 1557 1557 1557 1558 1558 1559 1560 1561 1561 1562 1563 1563 1564 1565
1529 1533 1536 1537 1539 1540 1541 1542 1543 1545 1546 1547 1548 1549 1550 1551 1552 1553 1554 1554 1555 1556 1557 1557 1557 1558 1558 1558 1558 1558 1558 1558 1559 1559 1560 1561 1562 1563 1564 1565 1565 1566 1567
1528 1532 1535 1538 1539 1540 1542 1543 1544 1545 1546 1548 1549 1550 1551 1552 1552 1553 1554 1555 1556 1557 1557 1558 1558 1559 1559 1559 1559 1559 1560 1560 1560 1561 1562 1563 1564 1565 1565 1567 1567 1568 1569
1528 1532 1535 1537 1539 1541 1542 1543 1544 1545 1547 1548 1549 1550 1551 1552 1553 1554 1555 1556 1557 1558 1558 1559 1560 1560 1560 1560 1561 1561 1561 1562 1562 1563 1564 1565 1565 1566 1567 1568 1569 1570 1570
1528 1532 1535 1537 1539 1541 1542 1543 1545 1546 1547 1548 1550 1551 1552 1553 1554 1555 1556 1556 1557 1558 1559 1560 1561 1561 1562 1562 1563 1563 1563 1564 1564 1565 1565 1566 1567 1568 1569 1570 1571 1572 1572
1529 1532 1535 1537 1539 1541 1542 1544 1545 1546 1547 1549 1550 1551 1552 1553 1554 1555 1556 1557 1558 1559 1560 1561 1562 1562 1563 1564 1564 1565 1565 1565 1566 1566 1567 1568 1568 1569 1570 1571 1572 1573 1574
1529 1533 1535 1538 1540 1541 1542 1544 1545 1547 1548 1549 1550 1551 1552 1553 1554 1555 1556 1557 1558 1559 1560 1562 1563 1564 1565 1565 1566 1566 1566 1567 1567 1568 1569 1569 1570 1571 1572 1573 1574 1575 1575
1530 1533 1536 1538 1540 1541 1543 1544 1546 1547 1548 1549 1551 1552 1552 1553 1555 1556 1557 1558 1559 1560 1561 1562 1564 1565 1566 1566 1567 1567 1567 1568 1568 1569 1570 1571 1571 1572 1573 1574 1575 1576 1577
1530 1533 1536 1538 1540 1542 1543 1545 1546 1547 1549 1550 1551 1552 1553 1554 1555 1556 1557 1558 1559 1560 1561 1563 1564 1565 1567 1567 1568 1568 1568 1569 1569 1570 1571 1572 1572 1573 1574 1575 1576 1577 1578
1530 1533 1535 1537 1539 1542 1544 1545 1546 1548 1549 1550 1551 1552 1553 1554 1555 1556 1557 1558 1559 1560 1561 1563 1564 1566 1567 1568 1568 1568 1569 1569 1570 1571 1571 1572 1573 1574 1575 1576 1577 1578 1579
1530 1532 1535 1537 1539 1542 1544 1545 1547 1548 1549 1550 1551 1552 1553 1554 1555 1556 1557 1558 1559 1560 1561 1562 1564 1565 1567 1567 1568 1569 1569 1570 1571 1572 1572 1573 1574 1575 1576 1576 1577 1579 1580
1528 1532 1535 1537 1539 1541 1543 1545 1547 1548 1549 1550 1551 1552 1553 1553 1554 1555 1556 1557 1558 1559 1560 1562 1563 1564 1566 1567 1568 1568 1569 1570 1571 1572 1572 1573 1574 1575 1576 1577 1578 1579 1580
1527 1530 1534 1536 1539 1541 1543 1545 1547 1548 1549 1550 1551 1552 1552 1553 1554 1555 1555 1556 1557 1558 1559 1561 1562 1564 1565 1566 1567 1568 1569 1570 1571 1571 1572 1573 1574 1575 1576 1577 1578 1579 1580
1525 1529 1532 1535 1538 1541 1543 1544 1546 1548 1549 1550 1551 1551 1551 1552 1553 1554 1555 1556 1557 1558 1559 1560 1561 1562 1564 1565 1567 1567 1568 1569 1570 1571 1572 1573 1574 1575 1576 1577 1578 1579 1580
1523 1527 1531 1534 1537 1539 1542 1544 1545 1547 1549 1550 1550 1551 1551 1552 1552 1553 1554 1555 1556 1556 1558 1559 1560 1561 1562 1564 1566 1567 1567 1568 1569 1570 1571 1572 1573 1575 1576 1577 1578 1579 1580
1521 1525 1529 1532 1535 1538 1541 1543 1545 1547 1549 1549 1550 1550 1551 1551 1552 1552 1553 1553 1554 1555 1556 1558 1559 1560 1562 1563 1564 1566 1566 1567 1568 1570 1570 1571 1573 1574 1575 1577 1578 1579 1580
1519 1523 1528 1529 1533 1537 1540 1542 1544 1546 1548 1549 1550 1550 1550 1550 1551 1551 1552 1553 1554 1555 1556 1557 1558 1559 1560 1562 1563 1565 1566 1567 1568 1569 1570 1570 1571 1573 1574 1576 1577 1578 1579
1517 1521 1526 1529 1532 1536 1539 1542 1544 1546 1548 1549 1550 1550 1550 1550 1550 1551 1552 1553 1553 1554 1555 1556 1557 1558 1560 1561 1563 1564 1565 1566 1567 1568 1569 1570 1571 1572 1573 1574 1576 1577 1578
1514 1518 1523 1527 1531 1535 1538 1541 1544 1546 1548 1549 1549 1549 1549 1550 1550 1551 1551 1552 1553 1554 1555 1556 1557 1558 1559 1561 1562 1563 1565 1566 1566 1567 1568 1569 1570 1571 1572 1573 1574 1575 1576
1512 1517 1521 1525 1530 1534 1537 1540 1543 1545 1547 1548 1549 1549 1549 1549 1550 1550 1551 1552 1553 1553 1554 1555 1556 1558 1559 1560 1562 1563 1564 1566 1566 1567 1568 1568 1569 1570 1571 1572 1573 1574 1574
1511 1516 1520 1524 1528 1532 1536 1539 1541 1544 1546 1547 1548 1549 1549 1549 1549 1550 1551 1551 1552 1553 1554 1555 1556 1557 1558 1560 1561 1563 1564 1565 1566 1566 1567 1568 1569 1569 1570 1571 1571 1572 1573
1509 1515 1519 1524 1527 1531 1535 1538 1540 1543 1545 1547 1548 1549 1549 1549 1549 1550 1550 1551 1552 1552 1553 1554 1555 1557 1558 1559 1560 1561 1563 1566 1565 1566 1566 1567 1568 1568 1569 1569 1570 1570 1571
1510 1514 1518 1523 1527 1531 1534 1537 1540 1542 1544 1546 1547 1548 1549 1549 1549 1550 1550 1550 1551 1552 1552 1553 1555 1556 1557 1558 1559 1561 1562 1563 1564 1565 1565 1566 1567 1567 1567 1568 1568 1569 1569
1510 1514 1518 1522 1526 1530 1533 1535 1537 1540 1542 1544 1546 1547 1548 1549 1549 1550 1550 1550 1551 1551 1552 1553 1554 1556 1557 1557 1558 1559 1561 1561 1562 1564 1565 1565 1566 1566 1566 1567 1567 1567 1568
1510 1514 1517 1522 1525 1529 1532 1535 1537 1540 1542 1544 1546 1547 1548 1548 1549 1550 1550 1550 1550 1551 1552 1553 1554 1555 1556 1557 1558 1559 1559 1560 1561 1562 1563 1564 1565 1565 1565 1565 1566 1566 1566
1510 1513 1517 1520 1524 1527 1531 1534 1537 1539 1541 1543 1545 1546 1547 1548 1549 1549 1550 1550 1550 1551 1551 1552 1553 1554 1556 1557 1557 1558 1559 1559 1560 1561 1561 1562 1563 1563 1563 1564 1564 1564 1564